TimeEST,TemperatureF,Dew PointF,Humidity,Sea Level PressureIn,VisibilityMPH,Wind Direction,Wind SpeedMPH,Gust SpeedMPH,PrecipitationIn,Events,Conditions,WindDirDegrees,DateUTC
12:14 AM,-9999,-9999,N/A,-9999,-9999.0,North,-9999.0,-,N/A,,Unknown,0,2014-01-24 05:14:00
12:34 AM,-9999,-9999,N/A,-9999,-9999.0,North,-9999.0,-,N/A,,Unknown,0,2014-01-24 05:34:00
12:54 AM,-9999,-9999,N/A,-9999,-9999.0,North,-9999.0,-,N/A,,Unknown,0,2014-01-24 05:54:00
1:14 AM,-9999,-9999,N/A,-9999,-9999.0,North,-9999.0,-,N/A,,Unknown,0,2014-01-24 06:14:00
1:34 AM,-9999,-9999,N/A,-9999,-9999.0,North,-9999.0,-,N/A,,Unknown,0,2014-01-24 06:34:00
1:54 AM,-9999,-9999,N/A,-9999,-9999.0,North,-9999.0,-,N/A,,Unknown,0,2014-01-24 06:54:00
2:14 AM,-9999,-9999,N/A,-9999,-9999.0,North,-9999.0,-,N/A,,Unknown,0,2014-01-24 07:14:00
2:34 AM,-9999,-9999,N/A,-9999,-9999.0,North,-9999.0,-,N/A,,Unknown,0,2014-01-24 07:34:00
2:54 AM,-9999,-9999,N/A,-9999,-9999.0,North,-9999.0,-,N/A,,Unknown,0,2014-01-24 07:54:00
3:14 AM,-9999,-9999,N/A,-9999,-9999.0,North,-9999.0,-,N/A,,Unknown,0,2014-01-24 08:14:00
3:34 AM,-9999,-9999,N/A,-9999,-9999.0,North,-9999.0,-,N/A,,Unknown,0,2014-01-24 08:34:00
3:54 AM,-9999,-9999,N/A,-9999,-9999.0,North,-9999.0,-,N/A,,Unknown,0,2014-01-24 08:54:00
4:14 AM,-9999,-9999,N/A,-9999,-9999.0,North,-9999.0,-,N/A,,Unknown,0,2014-01-24 09:14:00
4:34 AM,-9999,-9999,N/A,-9999,-9999.0,North,-9999.0,-,N/A,,Unknown,0,2014-01-24 09:34:00
4:54 AM,-9999,-9999,N/A,-9999,-9999.0,North,-9999.0,-,N/A,,Unknown,0,2014-01-24 09:54:00
5:14 AM,-9999,-9999,N/A,-9999,-9999.0,North,-9999.0,-,N/A,,Unknown,0,2014-01-24 10:14:00
5:34 AM,-9999,-9999,N/A,-9999,-9999.0,North,-9999.0,-,N/A,,Unknown,0,2014-01-24 10:34:00
5:54 AM,-9999,-9999,N/A,-9999,-9999.0,North,-9999.0,-,N/A,,Unknown,0,2014-01-24 10:54:00
6:14 AM,-9999,-9999,N/A,-9999,-9999.0,North,-9999.0,-,N/A,,Unknown,0,2014-01-24 11:14:00
6:34 AM,-9999,-9999,N/A,-9999,-9999.0,North,-9999.0,-,N/A,,Unknown,0,2014-01-24 11:34:00
6:54 AM,-9999,-9999,N/A,-9999,-9999.0,North,-9999.0,-,N/A,,Unknown,0,2014-01-24 11:54:00
7:14 AM,-9999,-9999,N/A,-9999,-9999.0,North,-9999.0,-,N/A,,Unknown,0,2014-01-24 12:14:00
7:34 AM,-9999,-9999,N/A,-9999,-9999.0,North,-9999.0,-,N/A,,Unknown,0,2014-01-24 12:34:00
7:54 AM,-9999,-9999,N/A,-9999,-9999.0,North,-9999.0,-,N/A,,Unknown,0,2014-01-24 12:54:00
8:14 AM,-9999,-9999,N/A,-9999,-9999.0,North,-9999.0,-,N/A,,Unknown,0,2014-01-24 13:14:00
8:34 AM,-9999,-9999,N/A,-9999,-9999.0,North,-9999.0,-,N/A,,Unknown,0,2014-01-24 13:34:00
8:54 AM,-9999,-9999,N/A,-9999,-9999.0,North,-9999.0,-,N/A,,Unknown,0,2014-01-24 13:54:00
9:14 AM,-9999,-9999,N/A,-9999,-9999.0,North,-9999.0,-,N/A,,Unknown,0,2014-01-24 14:14:00
9:34 AM,-9999,-9999,N/A,-9999,-9999.0,North,-9999.0,-,N/A,,Unknown,0,2014-01-24 14:34:00
9:54 AM,-9999,-9999,N/A,-9999,-9999.0,North,-9999.0,-,N/A,,Unknown,0,2014-01-24 14:54:00
10:14 AM,-9999,-9999,N/A,-9999,-9999.0,North,-9999.0,-,N/A,,Unknown,0,2014-01-24 15:14:00
10:34 AM,-9999,-9999,N/A,-9999,-9999.0,North,-9999.0,-,N/A,,Unknown,0,2014-01-24 15:34:00
10:54 AM,-9999,-9999,N/A,-9999,-9999.0,North,-9999.0,-,N/A,,Unknown,0,2014-01-24 15:54:00
11:14 AM,-9999,-9999,N/A,30.47,-9999.0,SW,9.2,-,N/A,,Unknown,220,2014-01-24 16:14:00
11:34 AM,10.4,-0.4,62,30.46,10.0,SW,8.1,18.4,N/A,,Clear,220,2014-01-24 16:34:00
11:54 AM,10.4,-0.4,62,30.45,10.0,WSW,13.8,18.4,N/A,,Clear,240,2014-01-24 16:54:00
12:14 PM,12.2,-0.4,57,30.43,10.0,SW,15.0,21.9,N/A,,Clear,230,2014-01-24 17:14:00
12:34 PM,12.2,-0.4,57,30.41,10.0,SW,13.8,-,N/A,,Clear,230,2014-01-24 17:34:00
12:54 PM,14.0,-0.4,53,30.38,10.0,SW,12.7,18.4,N/A,,Clear,230,2014-01-24 17:54:00
1:14 PM,14.0,-0.4,53,30.37,10.0,SW,9.2,19.6,N/A,,Clear,220,2014-01-24 18:14:00
1:34 PM,15.8,-0.4,49,30.34,10.0,SW,12.7,21.9,N/A,,Clear,220,2014-01-24 18:34:00
1:54 PM,17.6,-0.4,45,30.32,10.0,SW,10.4,21.9,N/A,,Clear,220,2014-01-24 18:54:00
2:14 PM,17.6,-0.4,45,30.29,10.0,SSW,15.0,19.6,N/A,,Clear,200,2014-01-24 19:14:00
2:34 PM,19.4,-0.4,42,30.27,10.0,SSW,11.5,19.6,N/A,,Clear,210,2014-01-24 19:34:00
2:54 PM,19.4,1.4,46,30.26,10.0,SSW,12.7,18.4,N/A,,Clear,210,2014-01-24 19:54:00
3:14 PM,19.4,1.4,46,30.25,10.0,SW,10.4,17.3,N/A,,Clear,220,2014-01-24 20:14:00
3:34 PM,19.4,3.2,49,30.24,10.0,SSW,12.7,19.6,N/A,,Clear,200,2014-01-24 20:34:00
3:54 PM,19.4,3.2,49,30.21,10.0,SSW,12.7,21.9,N/A,,Clear,200,2014-01-24 20:54:00
4:14 PM,19.4,3.2,49,30.19,10.0,South,9.2,19.6,N/A,,Clear,190,2014-01-24 21:14:00
4:34 PM,19.4,3.2,49,30.17,10.0,SSW,13.8,23.0,N/A,,Clear,200,2014-01-24 21:34:00
4:54 PM,19.4,3.2,49,30.15,10.0,SSW,11.5,23.0,N/A,,Clear,200,2014-01-24 21:54:00
5:14 PM,19.4,3.2,49,30.14,10.0,SSW,12.7,20.7,N/A,,Scattered Clouds,200,2014-01-24 22:14:00
5:34 PM,19.4,3.2,49,30.11,10.0,SSW,12.7,21.9,N/A,,Clear,210,2014-01-24 22:34:00
5:54 PM,19.4,3.2,49,30.09,10.0,SSW,13.8,21.9,N/A,,Clear,200,2014-01-24 22:54:00
6:14 PM,19.4,3.2,49,30.07,10.0,SSW,15.0,23.0,N/A,,Clear,200,2014-01-24 23:14:00
6:34 PM,19.4,5.0,54,30.06,10.0,SSW,9.2,17.3,N/A,,Clear,200,2014-01-24 23:34:00
6:54 PM,21.2,5.0,50,30.05,10.0,SSW,13.8,23.0,N/A,,Clear,200,2014-01-24 23:54:00
7:14 PM,21.2,5.0,50,30.04,10.0,South,10.4,17.3,N/A,,Clear,190,2014-01-25 00:14:00
7:34 PM,21.2,5.0,50,30.03,10.0,SSW,12.7,19.6,N/A,,Clear,200,2014-01-25 00:34:00
7:54 PM,21.2,5.0,50,30.00,10.0,SSW,12.7,23.0,N/A,,Clear,210,2014-01-25 00:54:00
8:14 PM,21.2,5.0,50,29.98,10.0,SSW,17.3,26.5,N/A,,Clear,210,2014-01-25 01:14:00
8:34 PM,21.2,3.2,46,29.97,10.0,SSW,15.0,27.6,N/A,,Clear,210,2014-01-25 01:34:00
8:54 PM,23.0,3.2,43,29.95,10.0,SSW,16.1,29.9,N/A,,Clear,210,2014-01-25 01:54:00
9:14 PM,23.0,3.2,43,29.94,10.0,SW,12.7,26.5,N/A,,Clear,230,2014-01-25 02:14:00
9:34 PM,23.0,3.2,43,29.93,10.0,SW,13.8,25.3,N/A,,Clear,230,2014-01-25 02:34:00
9:54 PM,23.0,3.2,43,29.92,10.0,SW,15.0,24.2,N/A,,Clear,220,2014-01-25 02:54:00
10:14 PM,23.0,3.2,43,29.91,10.0,SW,12.7,28.8,N/A,,Clear,230,2014-01-25 03:14:00
10:34 PM,23.0,3.2,43,29.90,10.0,SW,17.3,28.8,N/A,,Clear,230,2014-01-25 03:34:00
10:54 PM,23.0,3.2,43,29.90,10.0,WSW,12.7,21.9,N/A,,Clear,240,2014-01-25 03:54:00
11:14 PM,24.8,3.2,40,29.90,10.0,SW,15.0,25.3,N/A,,Scattered Clouds,230,2014-01-25 04:14:00
11:34 PM,24.8,3.2,40,29.87,10.0,SW,15.0,29.9,N/A,,Mostly Cloudy,230,2014-01-25 04:34:00
11:54 PM,26.6,3.2,37,29.86,10.0,SW,17.3,29.9,N/A,,Mostly Cloudy,230,2014-01-25 04:54:00